Location: Alsip
(41.6689°N, 87.7387°W)
Time: 20:33:27
(UTC+00:00)

Cosmos 1048 Rocket - Pass Details

Date: 25 October 2020
Orbit: 743 x 792 km, 74.0° (Epoch: 03 December)

Event Time Altitude Azimuth Distance (km) Brightness Sun altitude
Exits shadow 09:51:58 26° 351° (N) 1,517 5.5 -27.3°
Drops below altitude 10° 09:54:29 10° 7° (N) 2,351 6.7 -26.9°
Sets 09:57:01 0° 14° (NNE) 3,289 7.5 -26.4°
